Miscellaneous Local Product
Issued by NWS North Platte, NE

Home | Current Version | Previous Version | Graphics & Text | Print | Product List | Glossary On
Versions: 1 2 3 4 5 6 7 8 9 10 11 12 13 14 15 16 17 18 19 20 21 22 23 24 25 26 27 28 29 30 31 32 33 34 35 36 37 38 39 40 41 42 43 44 45 46 47 48 49 50
165
AXUS43 KLBF 230810
MISLBF


WESTERN AND NORTH CENTRAL NEBRASKA HOURLY WEATHER ROUNDUP
NATIONAL WEATHER SERVICE NORTH PLATTE NE
300 AM CDT WED AUG 23 2017

NOTE: "FAIR" INDICATES FEW OR NO CLOUDS BELOW 12,000 FEET WITH NO
SIGNIFICANT WEATHER AND/OR OBSTRUCTIONS TO VISIBILITY.

NOTE: STATIONS NOT REPORTING VARIABLES SUCH AS SKY/WEATHER OR
PRESSURE ARE PROVIDED BY RAWS AND APRS NETWORKS AND ARE NOT UNDER
NATIONAL WEATHER SERVICE QUALITY CONTROL.

...OBSERVATIONS IN AND NEAR THE EASTERN PANHANDLE OF NEBRASKA...

CITY           SKY/WX    TMP DP  RH WIND       PRES   REMARKS
PINE RIDGE     CLEAR     69  52  54 S23G30    30.09S
GORDON         FAIR      64  49  59 CALM      30.13S
CHADRON        CLEAR     68  51  54 SW14G25   30.07S
ALLIANCE       CLEAR     59  51  75 S14       30.15S
SIDNEY         CLEAR     62  54  74 S13       30.19F
$$

...OBSERVATIONS IN NORTHERN NEBRASKA AND FAR SOUTHERN SOUTH DAKOTA...

CITY           SKY/WX    TMP DP  RH WIND       PRES   REMARKS
WINNER         FAIR      59  54  83 SE5       30.12F
VALENTINE      CLEAR     60  50  69 CALM      30.13F
THEDFORD       CLEAR     62  54  74 S12       30.17S
AINSWORTH      CLEAR     58  54  85 S7        30.15S
O`NEILL        CLEAR     57  54  87 SE6       30.17S
ORD            CLEAR     56  52  86 CALM      30.17S
BROKEN BOW     CLEAR     57  52  83 CALM      30.17F
VALENTINE NWR    N/A     58  52  80 S6          N/A
HALSEY           N/A     62  51  68 S7          N/A
BUTTE            N/A     59  51  75 S6          N/A
CHAMBERS         N/A     56  52  86 CALM        N/A
EWING            N/A     55  53  93 CALM        N/A
$$

...OBSERVATIONS IN SOUTHWEST NEBRASKA AND FAR NORTHEAST COLORADO...

CITY           SKY/WX    TMP DP  RH WIND       PRES   REMARKS
WRAY           FAIR      63  46  55 S12       30.21R
HOLYOKE        FAIR      59  50  72 SE9       30.20F
IMPERIAL       CLEAR     59  49  69 S9        30.20F
OGALLALA       CLEAR     61  53  74 SE6       30.20S
NORTH PLATTE   CLEAR     58  52  80 SE5       30.19S
MCCOOK         MOCLDY    61  52  72 S9        30.20S
LEXINGTON      CLEAR     58  53  82 S7        30.19S
STAPLETON        N/A     58  53  84 CALM        N/A
GOTHENBURG       N/A     61  49  65 E3          N/A
CALLAWAY         N/A     56  54  93 S7          N/A
$$

...OBSERVATIONS IN CENTRAL LINCOLN COUNTY AREA...

CITY           SKY/WX    TMP DP  RH WIND       PRES   REMARKS
N.P. AIRPORT   CLEAR     58  52  80 SE5       30.19S
N.P. DOWNTOWN    N/A     62  53  73 CALM        N/A
N.P. SOUTHEAST   N/A     62  53  73 S6          N/A
N.P. HILLCREST   N/A     59  53  79 SE5         N/A
$$

...SOME OBSERVATIONS FROM AROUND THE REGION...

CITY           SKY/WX    TMP DP  RH WIND       PRES   REMARKS
DENVER         CLOUDY    64  47  53 S14       30.19S
LIMON          CLEAR     55  54  96 S8        30.27F
ASPEN          CLOUDY    52  41  66 SW7       30.43S
LARAMIE        CLOUDY    50  43  77 S8        30.33S
CASPER         CLEAR     53  38  56 W5        30.19S
CHEYENNE       CLEAR     56  51  84 W8        30.24S
SCOTTSBLUFF    CLEAR     59  53  80 E10       30.14F
GRAND ISLAND   CLEAR     57  55  93 S7        30.19F
OMAHA          CLEAR     58  53  84 CALM      30.17S
SIOUX FALLS    CLEAR     54  53  97 CALM      30.15S
PIERRE         CLEAR     60  51  72 SE10      30.10S
RAPID CITY     CLEAR     57  47  69 S6        30.08S
BISMARCK       CLEAR     49  47  93 CALM      30.12S
KANSAS CITY    CLEAR     59  54  83 NE3       30.17R
HILL CITY      CLEAR     56  51  84 E6        30.21S
WICHITA        PTCLDY    65  56  72 E7        30.16S
DODGE CITY       N/A    N/A N/A N/A MISG      30.21R
OKLAHOMA CITY  CLOUDY    72  71  97 S3        30.08S
DALLAS         CLOUDY    80  72  76 N25G35    29.98F
AMARILLO       CLOUDY    67  65  93 W5        30.19F
$$




USA.gov is the U.S. government's official web portal to all federal, state and local government web resources and services.